Satellite-Ground Cal/Val Region Overpasses Predictions

Prediction of Satellite NPP Overpassing Cal/Val Region: PacNW

Region Location: (Latitude: 10.00, Longitude: 139.50) to (Latitude: 22.70, Longitude: 165.60).

Table of predicted overpasses for the next 14.0 days since TLE Epoch: 5/2/2014
Interval Starting Time Starting Location Ending Time Ending Location
1 05/02/2014 03:48:21 ( 10.06, 143.86) 05/02/2014 03:51:56 ( 22.67, 140.84)
2 05/02/2014 14:39:48 ( 18.96, 165.59) 05/02/2014 14:42:20 ( 10.03, 163.49)
3 05/02/2014 16:20:15 ( 22.65, 141.13) 05/02/2014 16:22:08 ( 16.02, 139.51)
4 05/03/2014 03:29:21 ( 10.04, 148.62) 05/03/2014 03:32:56 ( 22.66, 145.60)
5 05/03/2014 16:01:15 ( 22.67, 145.89) 05/03/2014 16:04:50 ( 10.05, 142.87)
6 05/04/2014 03:10:20 ( 10.02, 153.38) 05/04/2014 03:13:56 ( 22.70, 150.35)
7 05/04/2014 15:42:14 ( 22.68, 150.65) 05/04/2014 15:45:50 ( 10.00, 147.62)
8 05/05/2014 02:51:20 ( 10.01, 158.14) 05/05/2014 02:54:56 ( 22.68, 155.11)
9 05/05/2014 15:23:14 ( 22.70, 155.41) 05/05/2014 15:26:50 ( 10.02, 152.38)
10 05/06/2014 02:32:20 ( 10.05, 162.89) 05/06/2014 02:35:55 ( 22.67, 159.87)
11 05/06/2014 15:04:14 ( 22.65, 160.16) 05/06/2014 15:07:49 ( 10.03, 157.14)
12 05/07/2014 02:15:49 ( 18.78, 165.59) 05/07/2014 02:16:55 ( 22.65, 164.63)
13 05/07/2014 03:54:50 ( 10.04, 142.27) 05/07/2014 03:58:08 ( 21.66, 139.51)
14 05/07/2014 14:45:14 ( 22.66, 164.92) 05/07/2014 14:48:49 ( 10.04, 161.90)
15 05/07/2014 16:26:44 ( 22.67, 139.54) 05/07/2014 16:26:46 ( 22.55, 139.51)
16 05/08/2014 03:35:49 ( 10.02, 147.03) 05/08/2014 03:39:25 ( 22.70, 144.00)
17 05/08/2014 16:07:43 ( 22.68, 144.30) 05/08/2014 16:11:18 ( 10.06, 141.29)
18 05/09/2014 03:16:49 ( 10.01, 151.79) 05/09/2014 03:20:25 ( 22.69, 148.76)
19 05/09/2014 15:48:43 ( 22.69, 149.06) 05/09/2014 15:52:19 ( 10.01, 146.03)
20 05/10/2014 02:57:50 ( 10.06, 156.54) 05/10/2014 03:01:25 ( 22.68, 153.52)
21 05/10/2014 15:29:42 ( 22.70, 153.82) 05/10/2014 15:33:18 ( 10.02, 150.79)
22 05/11/2014 02:38:49 ( 10.05, 161.30) 05/11/2014 02:42:24 ( 22.67, 158.28)
23
